This is the latest recevied weather packets stored in our database for station/object KB0RPJ. If no packets are shown the sender has not sent any weather packets the latest 10 day(s).
| Time | Temp. | Humidity | Pressure | Rain* | Wind** | Luminosity | Snow |
|---|---|---|---|---|---|---|---|
| 1777757406 | 17.22° C | 33% | 1018.7 hPa | 0 mm | - | 631 W/m² | - |
| 1777757117 | 17.22° C | 37% | 1018.7 hPa | 0 mm | - | 648 W/m² | - |
| 1777756806 | 17.22° C | 34% | 1018.7 hPa | 0 mm | - | 666 W/m² | - |
| 1777756505 | 17.22° C | 36% | 1018.7 hPa | 0 mm | - | 680 W/m² | - |
| 1777756206 | 17.22° C | 34% | 1018.9 hPa | 0 mm | - | 698 W/m² | - |
| 1777755904 | 17.22° C | 38% | 1018.9 hPa | 0 mm | - | 709 W/m² | - |
| 1777755618 | 17.22° C | 38% | 1018.9 hPa | 0 mm | - | 723 W/m² | - |
| 1777755306 | 17.22° C | 35% | 1019 hPa | 0 mm | - | 736 W/m² | - |
| 1777755011 | 16.67° C | 35% | 1019 hPa | 0 mm | - | 745 W/m² | - |
| 1777754705 | 16.67° C | 33% | 1019 hPa | 0 mm | - | 763 W/m² | - |
| 1777754405 | 16.67° C | 33% | 1019.2 hPa | 0 mm | - | 767 W/m² | - |
| 1777754105 | 16.67° C | 34% | 1019.2 hPa | 0 mm | - | 781 W/m² | - |
| 1777753805 | 16.67° C | 36% | 1019.2 hPa | 0 mm | - | 800 W/m² | - |
| 1777753504 | 16.67° C | 32% | 1019.3 hPa | 0 mm | - | 800 W/m² | - |
| 1777753205 | 16.67° C | 34% | 1019.4 hPa | 0 mm | - | 818 W/m² | - |
| 1777752905 | 16.67° C | 33% | 1019.4 hPa | 0 mm | - | 825 W/m² | - |
| 1777752605 | 16.67° C | 36% | 1019.4 hPa | 0 mm | - | 824 W/m² | - |
| 1777752305 | 16.67° C | 34% | 1019.5 hPa | 0 mm | - | 840 W/m² | - |
| 1777752005 | 16.67° C | 33% | 1019.6 hPa | 0 mm | - | 855 W/m² | - |
| 1777751704 | 16.67° C | 37% | 1019.7 hPa | 0 mm | - | 866 W/m² | - |
| 1777751405 | 16.11° C | 34% | 1019.7 hPa | 0 mm | - | 871 W/m² | - |
| 1777751104 | 16.11° C | 36% | 1019.8 hPa | 0 mm | - | 879 W/m² | - |
| 1777750823 | 15.56° C | 39% | 1019.7 hPa | 0 mm | - | 884 W/m² | - |
| 1777750505 | 15.56° C | 33% | 1019.8 hPa | 0 mm | - | 892 W/m² | - |
| 1777750205 | 15.56° C | 34% | 1019.8 hPa | 0 mm | - | 899 W/m² | - |
* Rain latest hour (hover to see other rain measurements)
** Current wind speed in m/s (hover to see current wind gust speed)